Weather History for Sturgis, MI

Change the Weather History Date:

Wednesday, September 25, 2013

  Actual Average (KHAI) Record (KHAI)
Temperature  
Mean Temperature 58 °F -  
Max Temperature 71 °F 68 °F 88 °F (1986)
Min Temperature 44 °F 45 °F 29 °F (1989)
Degree Days  
Heating Degree Days 8    
Growing Degree Days 8 (Base 50)    
Moisture  
Dew Point 49 °F    
Average Humidity 75    
Maximum Humidity 100    
Minimum Humidity 43    
Precipitation  
Precipitation 0.00 in - - ()
Sea Level Pressure  
Sea Level Pressure 29.97 in    
Wind  
Wind Speed 3 mph (East)    
Max Wind Speed 8 mph    
Max Gust Speed -    
Visibility 8 miles    
Events      
Averages and records for this station are not official NWS values.
T = Trace of Precipitation, MM = Missing Value Source: NWS Daily Summary

Daily Weather History Graph

Daily Weather History Graph

Search for Another Location

Airport:

Trip Planner

Search our weather history database for the weather conditions in past years. The results will help you decide how hot, cold, wet, or windy it might be!

Date:

Astronomy

Sep. 25, 2013 Rise Set
Actual Time 7:32 AM EDT 7:33 PM EDT
Civil Twilight 7:04 AM EDT 8:01 PM EDT
Nautical Twilight 6:32 AM EDT 8:33 PM EDT
Astronomical Twilight 5:59 AM EDT 9:06 PM EDT
Moon 11:34 PM EDT (9/25) 1:42 PM EDT (9/25)
Length of Visible Light 12h 56m
Length of Day
12h 00m
Waning Gibbous, 64% of the Moon is Illuminated
Sep 25
Waning Gibbous
Sep 26
Last Quarter
Oct 4
New
Oct 11
First Quarter
Oct 18
Full

Hourly Weather History & Observations

Time (EDT) Temp. Windchill Dew Point Humidity Pressure Visibility Wind Dir Wind Speed Gust Speed Precip Events Conditions
12:15 AM 51.8 °F - 44.6 °F 76% 29.97 in 10.0 mi East 5.8 mph - N/A   Clear
12:34 AM 51.8 °F - 46.4 °F 82% 29.97 in 10.0 mi East 3.5 mph - N/A   Clear
12:55 AM 50.0 °F - 46.4 °F 87% 29.98 in 10.0 mi Calm Calm - N/A   Clear
1:14 AM 50.0 °F - 46.4 °F 87% 29.97 in 10.0 mi Calm Calm - N/A   Clear
1:35 AM 48.2 °F - 44.6 °F 87% 29.97 in 10.0 mi East 3.5 mph - N/A   Clear
1:54 AM 48.2 °F - 44.6 °F 87% 29.97 in 10.0 mi Calm Calm - N/A   Clear
2:15 AM 51.8 °F - 46.4 °F 82% 29.98 in 10.0 mi ESE 4.6 mph - N/A   Clear
2:35 AM 50.0 °F - 46.4 °F 87% 29.97 in 10.0 mi Calm Calm - N/A   Clear
2:54 AM 50.0 °F - 46.4 °F 87% 29.97 in 10.0 mi Calm Calm - N/A   Clear
3:15 AM 48.2 °F - 46.4 °F 93% 29.96 in 10.0 mi Calm Calm - N/A   Clear
3:35 AM 48.2 °F - 46.4 °F 93% 29.96 in 10.0 mi Calm Calm - N/A   Clear
3:54 AM 46.4 °F - 46.4 °F 100% 29.96 in 7.0 mi Calm Calm - N/A   Clear
4:15 AM 46.4 °F - 46.4 °F 100% 29.96 in 7.0 mi Calm Calm - N/A   Clear
4:35 AM 46.4 °F - 46.4 °F 100% 29.97 in 7.0 mi Calm Calm - N/A   Clear
4:54 AM 44.6 °F - 44.6 °F 100% 29.97 in 5.0 mi Calm Calm - N/A   Clear
5:15 AM 46.4 °F 45.2 °F 44.6 °F 93% 29.96 in 5.0 mi NE 3.5 mph - N/A   Clear
5:34 AM 46.4 °F - 44.6 °F 93% 29.96 in 4.0 mi Calm Calm - N/A   Clear
5:55 AM 46.4 °F 45.2 °F 44.6 °F 93% 29.96 in 4.0 mi NE 3.5 mph - N/A   Clear
6:15 AM 46.4 °F 45.2 °F 44.6 °F 93% 29.96 in 3.0 mi NE 3.5 mph - N/A   Clear
6:34 AM 46.4 °F 45.2 °F 46.4 °F 100% 29.97 in 3.0 mi NE 3.5 mph - N/A   Clear
6:55 AM 46.4 °F 44.3 °F 46.4 °F 100% 29.97 in 3.0 mi NE 4.6 mph - N/A   Clear
7:15 AM 46.4 °F 44.3 °F 46.4 °F 100% 29.97 in 2.5 mi NE 4.6 mph - N/A   Clear
7:34 AM 46.4 °F 45.2 °F 46.4 °F 100% 29.98 in 2.5 mi NE 3.5 mph - N/A   Clear
7:55 AM 46.4 °F 45.2 °F 46.4 °F 100% 29.98 in 2.5 mi ENE 3.5 mph - N/A   Clear
8:15 AM 46.4 °F - 46.4 °F 100% 29.98 in 2.0 mi Calm Calm - N/A   Clear
8:34 AM 48.2 °F - 48.2 °F 100% 29.98 in 2.5 mi NE 3.5 mph - N/A   Clear
8:55 AM 48.2 °F - 48.2 °F 100% 29.99 in 3.0 mi ENE 4.6 mph - N/A   Clear
9:14 AM 51.8 °F - 50.0 °F 94% 29.99 in 4.0 mi East 5.8 mph - N/A   Clear
9:35 AM 53.6 °F - 51.8 °F 94% 29.99 in 7.0 mi East 5.8 mph - N/A   Clear
9:55 AM 55.4 °F - 51.8 °F 88% 29.99 in 7.0 mi East 8.1 mph - N/A   Clear
10:14 AM 57.2 °F - 51.8 °F 82% 29.99 in 7.0 mi East 6.9 mph - N/A   Clear
10:35 AM 59.0 °F - 53.6 °F 82% 30.00 in 7.0 mi East 5.8 mph - N/A   Clear
10:54 AM 60.8 °F - 53.6 °F 77% 30.00 in 10.0 mi East 6.9 mph - N/A   Clear
11:14 AM 62.6 °F - 53.6 °F 72% 29.99 in 10.0 mi East 8.1 mph - N/A   Clear
11:35 AM 62.6 °F - 51.8 °F 68% 29.99 in 10.0 mi ESE 6.9 mph - N/A   Clear
11:54 AM 64.4 °F - 53.6 °F 68% 29.99 in 10.0 mi SSE 4.6 mph - N/A   Clear
12:14 PM 66.2 °F - 50.0 °F 56% 29.99 in 10.0 mi East 6.9 mph - N/A   Scattered Clouds
12:35 PM 66.2 °F - 50.0 °F 56% 29.98 in 10.0 mi ESE 6.9 mph - N/A   Scattered Clouds
12:54 PM 66.2 °F - 48.2 °F 52% 29.98 in 10.0 mi SE 5.8 mph - N/A   Clear
1:15 PM 66.2 °F - 50.0 °F 56% 29.97 in 10.0 mi ENE 8.1 mph - N/A   Clear
1:34 PM 68.0 °F - 50.0 °F 52% 29.97 in 10.0 mi Calm Calm - N/A   Clear
1:55 PM 69.8 °F - 48.2 °F 46% 29.96 in 10.0 mi ESE 8.1 mph - N/A   Clear
2:15 PM 69.8 °F - 48.2 °F 46% 29.96 in 10.0 mi ENE 4.6 mph - N/A   Clear
2:34 PM 69.8 °F - 48.2 °F 46% 29.95 in 10.0 mi ESE 5.8 mph - N/A   Clear
2:55 PM 69.8 °F - 48.2 °F 46% 29.95 in 10.0 mi Calm Calm - N/A   Clear
3:15 PM 69.8 °F - 48.2 °F 46% 29.95 in 10.0 mi SSE 4.6 mph - N/A   Clear
3:34 PM 69.8 °F - 48.2 °F 46% 29.95 in 10.0 mi Calm Calm - N/A   Clear
3:55 PM 69.8 °F - 48.2 °F 46% 29.95 in 10.0 mi East 3.5 mph - N/A   Clear
4:15 PM 69.8 °F - 48.2 °F 46% 29.94 in 10.0 mi NE 3.5 mph - N/A   Clear
4:34 PM 71.6 °F - 48.2 °F 43% 29.94 in 10.0 mi East 4.6 mph - N/A   Clear
4:55 PM 69.8 °F - 48.2 °F 46% 29.94 in 10.0 mi Calm Calm - N/A   Clear
5:15 PM 71.6 °F - 50.0 °F 46% 29.94 in 10.0 mi NE 4.6 mph - N/A   Clear
5:34 PM 69.8 °F - 50.0 °F 49% 29.94 in 10.0 mi East 3.5 mph - N/A   Clear
5:55 PM 69.8 °F - 51.8 °F 53% 29.95 in 10.0 mi Calm Calm - N/A   Clear
6:15 PM 69.8 °F - 51.8 °F 53% 29.95 in 10.0 mi NE 5.8 mph - N/A   Clear
6:34 PM 69.8 °F - 51.8 °F 53% 29.95 in 10.0 mi NNE 4.6 mph - N/A   Clear
6:55 PM 68.0 °F - 51.8 °F 56% 29.95 in 10.0 mi NE 5.8 mph - N/A   Clear
7:14 PM 66.2 °F - 51.8 °F 60% 29.96 in 10.0 mi ENE 5.8 mph - N/A   Clear
7:34 PM 64.4 °F - 51.8 °F 64% 29.96 in 10.0 mi ENE 4.6 mph - N/A   Clear
7:55 PM 60.8 °F - 50.0 °F 68% 29.96 in 10.0 mi ENE 4.6 mph - N/A   Clear
8:15 PM 60.8 °F - 50.0 °F 68% 29.97 in 10.0 mi ENE 5.8 mph - N/A   Clear
8:34 PM 59.0 °F - 50.0 °F 72% 29.97 in 10.0 mi ENE 5.8 mph - N/A   Clear
8:55 PM 57.2 °F - 50.0 °F 77% 29.97 in 10.0 mi ENE 4.6 mph - N/A   Clear
9:15 PM 57.2 °F - 50.0 °F 77% 29.98 in 10.0 mi East 3.5 mph - N/A   Clear
9:34 PM 57.2 °F - 48.2 °F 72% 29.97 in 10.0 mi East 4.6 mph - N/A   Clear
9:55 PM 57.2 °F - 50.0 °F 77% 29.97 in 10.0 mi East 5.8 mph - N/A   Clear
10:15 PM 57.2 °F - 50.0 °F 77% 29.97 in 10.0 mi East 5.8 mph - N/A   Clear
10:34 PM 55.4 °F - 50.0 °F 82% 29.98 in 10.0 mi East 4.6 mph - N/A   Clear
10:55 PM 55.4 °F - 50.0 °F 82% 29.98 in 10.0 mi Calm Calm - N/A   Clear
11:14 PM 53.6 °F - 50.0 °F 88% 29.98 in 10.0 mi East 3.5 mph - N/A   Clear
11:34 PM 53.6 °F - 50.0 °F 88% 29.98 in 10.0 mi Calm Calm - N/A   Clear
11:55 PM 53.6 °F - 50.0 °F 88% 29.98 in 10.0 mi East 3.5 mph - N/A   Clear